Evans Head Observation History
Time Wind Speed Temp Pressure Rel. Hum Rain
18/11:30pm NNW 7-10 kts 11.2°c 1019.5 hPa 64% 0.0mm
18/11:00pm N 7-10 kts 12.0°c 1019.4 hPa 62% 0.0mm
18/10:30pm N 8-10 kts 12.4°c 1019.4 hPa 63% 0.0mm
18/10:00pm N 8-11 kts 12.7°c 1019.6 hPa 62% 0.0mm
18/09:30pm N 9-11 kts 12.9°c 1019.7 hPa 62% 0.0mm
18/09:00pm N 8-10 kts 13.2°c 1019.7 hPa 61% 0.0mm
18/08:30pm N 8-11 kts 13.5°c 1019.7 hPa 60% 0.0mm
18/08:00pm N 9-13 kts 14.4°c 1019.5 hPa 58% 0.0mm
18/07:30pm N 9-12 kts 14.6°c 1019.2 hPa 65% 0.0mm
18/07:00pm N 8-10 kts 15.5°c 1019.0 hPa 57% 0.0mm
18/06:30pm N 7-9 kts 15.4°c 1018.8 hPa 58% 0.0mm
18/06:00pm NNE 7-8 kts 16.6°c 1018.7 hPa 52% 0.0mm
18/05:30pm NE 6-7 kts 17.2°c 1018.4 hPa 52% 0.0mm
18/05:00pm NE 5-7 kts 17.7°c 1018.2 hPa 51% 0.0mm
18/04:30pm ENE 5-7 kts 18.3°c 1018.2 hPa 53% 0.0mm
18/04:00pm E 5-6 kts 19.2°c 1018.1 hPa 41% 0.0mm
18/03:30pm ESE 5-7 kts 19.8°c 1018.0 hPa 42% 0.0mm
18/03:00pm SE 6-7 kts 20.6°c 1018.0 hPa 30% 0.0mm
18/02:30pm SE 6-7 kts 21.0°c 1018.1 hPa 30% 0.0mm
18/02:00pm SE 6-8 kts 21.8°c 1018.2 hPa 31% 0.0mm
18/01:30pm WSW 4-8 kts 22.4°c 1018.4 hPa 25% 0.0mm
18/01:00pm WSW 7-12 kts 21.8°c 1018.6 hPa 24% 0.0mm
18/12:30pm W 6-10 kts 22.4°c 1019.0 hPa 25% 0.0mm
18/12:00pm NW 6-10 kts 23.1°c 1019.4 hPa 28% 0.0mm
18/11:30am NNW 7-10 kts 23.1°c 1019.8 hPa 30% 0.0mm
18/11:00am NW 5-9 kts 21.7°c 1020.3 hPa 32% 0.0mm
18/10:30am WNW 6-9 kts 20.3°c 1020.7 hPa 33% 0.0mm
18/10:00am WNW 6-10 kts 19.7°c 1020.7 hPa 34% 0.0mm
18/09:30am WNW 6-9 kts 18.4°c 1020.7 hPa 33% 0.0mm
18/09:00am NW 5-7 kts 18.1°c 1020.4 hPa 35% 0.0mm
18/08:30am NW 5-7 kts 16.4°c 1020.2 hPa 47% 0.0mm
18/08:00am NW 5-8 kts 13.9°c 1020.1 hPa 52% 0.0mm
18/07:30am NW 4-5 kts 11.8°c 1019.7 hPa 50% 0.0mm
18/07:00am NNW 7-9 kts 9.6°c 1019.2 hPa 52% 0.0mm
18/06:30am NNW 8-10 kts 8.6°c 1018.8 hPa 55% 0.0mm
18/06:00am NNW 7-9 kts 9.5°c 1018.5 hPa 51% 0.0mm
18/05:30am NNW 6-8 kts 9.7°c 1018.2 hPa 49% 0.0mm
18/05:00am NW 7-11 kts 12.7°c 1018.2 hPa 36% 0.0mm
18/04:30am NW 9-14 kts 13.0°c 1018.2 hPa 36% 0.0mm
18/04:00am NW 7-10 kts 12.1°c 1018.1 hPa 40% 0.0mm
18/03:30am NW 9-14 kts 13.0°c 1018.0 hPa 39% 0.0mm
18/03:00am NW 8-12 kts 13.0°c 1018.0 hPa 39% 0.0mm
18/02:30am NW 9-13 kts 12.8°c 1017.9 hPa 41% 0.0mm
18/02:00am NNW 9-15 kts 12.1°c 1017.8 hPa 46% 0.0mm
18/01:30am NNW 8-13 kts 12.1°c 1018.0 hPa 46% 0.0mm
18/01:00am NNW 8-14 kts 12.4°c 1018.1 hPa 47% 0.0mm
18/12:30am NW 8-13 kts 12.8°c 1018.3 hPa 46% 0.0mm
18/12:00am NNW 7-9 kts 10.9°c 1018.3 hPa 59% 0.0mm
Time Wind Speed Temp Pressure Rel. Hum Rain
17/11:30pm NNW 7-10 kts 11.3°c 1018.4 hPa 60% 0.0mm
17/11:00pm NNW 7-10 kts 11.3°c 1018.3 hPa 60% 0.0mm
17/10:30pm NNW 7-11 kts 10.8°c 1018.2 hPa 64% 0.0mm
17/10:00pm NNW 8-11 kts 11.0°c 1018.0 hPa 66% 0.0mm
17/09:30pm N 8-11 kts 11.6°c 1018.1 hPa 65% 0.0mm
17/09:00pm NNW 8-11 kts 12.0°c 1018.3 hPa 64% 0.0mm
17/08:30pm N 9-13 kts 12.5°c 1018.0 hPa 63% 0.0mm
17/08:00pm N 7-9 kts 12.5°c 1018.0 hPa 64% 0.0mm
17/07:30pm N 7-9 kts 12.8°c 1017.9 hPa 65% 0.0mm
17/07:00pm N 8-10 kts 13.2°c 1017.8 hPa 67% 0.0mm
17/06:30pm N 7-9 kts 13.1°c 1017.6 hPa 70% 0.0mm
17/06:00pm N 7-9 kts 13.4°c 1017.4 hPa 69% 0.0mm
17/05:30pm N 6-7 kts 14.9°c 1017.2 hPa 63% 0.0mm
17/05:00pm NNE 6-7 kts 16.5°c 1017.0 hPa 57% 0.0mm
17/04:30pm NNE 5-7 kts 17.4°c 1016.9 hPa 53% 0.0mm
17/04:00pm NE 5-7 kts 18.5°c 1016.8 hPa 51% 0.0mm
17/03:30pm ENE 5-7 kts 19.1°c 1017.0 hPa 48% 0.0mm
17/03:00pm ENE 7-9 kts 19.1°c 1017.0 hPa 46% 0.0mm
17/02:30pm ENE 6-7 kts 20.1°c 1017.2 hPa 45% 0.0mm
17/02:00pm E 7-8 kts 19.6°c 1017.4 hPa 43% 0.0mm
17/01:30pm ESE 5-7 kts 20.4°c 1017.7 hPa 37% 0.0mm
17/01:00pm NW 3-6 kts 21.4°c 1017.7 hPa 28% 0.0mm
17/12:30pm WSW 3-7 kts 20.5°c 1018.2 hPa 30% 0.0mm
17/12:00pm SW 5-8 kts 19.7°c 1018.8 hPa 32% 0.0mm
17/11:30am W 3-7 kts 19.3°c 1018.9 hPa 33% 0.0mm
17/11:00am W 5-7 kts 18.5°c 1019.4 hPa 37% 0.0mm
17/10:30am W 6-9 kts 17.8°c 1019.6 hPa 35% 0.0mm
17/10:00am WNW 5-7 kts 17.9°c 1019.8 hPa 36% 0.0mm
17/09:30am W 4-7 kts 16.5°c 1019.7 hPa 43% 0.0mm
17/09:00am WNW 4-6 kts 14.9°c 1019.3 hPa 46% 0.0mm
17/08:30am WNW 5-6 kts 13.4°c 1018.9 hPa 53% 0.0mm
17/08:00am NW 4-6 kts 10.9°c 1018.8 hPa 52% 0.0mm
17/07:30am WNW 7-9 kts 11.5°c 1018.5 hPa 42% 0.0mm
17/07:00am W 8-10 kts 11.1°c 1018.2 hPa 38% 0.0mm
17/06:30am WNW 8-10 kts 10.2°c 1017.8 hPa 42% 0.0mm
17/06:00am WNW 8-10 kts 10.3°c 1017.3 hPa 43% 0.0mm
17/05:30am WNW 7-9 kts 8.2°c 1017.2 hPa 53% 0.0mm
17/05:00am NNW 7-8 kts 7.0°c 1016.9 hPa 60% 0.0mm
17/04:30am NNW 7-9 kts 6.8°c 1016.7 hPa 62% 0.0mm
17/04:00am WNW 7-8 kts 11.5°c 1016.7 hPa 32% 0.0mm
17/03:30am W 8-9 kts 11.7°c 1016.7 hPa 33% 0.0mm
17/03:00am WSW 7-10 kts 12.1°c 1016.7 hPa 32% 0.0mm
17/02:30am WSW 9-12 kts 12.4°c 1016.9 hPa 32% 0.0mm
17/02:00am WSW 8-10 kts 12.3°c 1016.9 hPa 35% 0.0mm
17/01:30am WSW 7-10 kts 11.7°c 1017.1 hPa 41% 0.0mm
17/01:00am WSW 8-10 kts 11.6°c 1017.2 hPa 45% 0.0mm
17/12:30am WSW 8-12 kts 12.0°c 1016.8 hPa 48% 0.0mm
17/12:00am SW 11-13 kts 12.5°c 1016.7 hPa 47% 0.0mm
Time Wind Speed Temp Pressure Rel. Hum Rain
16/11:30pm SW 11-13 kts 12.9°c 1016.5 hPa 53% 0.0mm
16/11:00pm SW 9-13 kts 13.1°c 1016.2 hPa 51% 0.0mm
16/10:30pm WSW 9-11 kts 13.7°c 1016.3 hPa 42% 0.0mm
16/10:00pm WSW 8-10 kts 13.4°c 1015.9 hPa 40% 0.0mm
16/09:30pm SW 8-11 kts 13.6°c 1015.6 hPa 40% 0.0mm
16/09:00pm W 8-11 kts 15.1°c 1015.2 hPa 35% 0.0mm
16/08:30pm WNW 8-11 kts 15.4°c 1014.9 hPa 35% 0.0mm
16/08:00pm WNW 6-11 kts 15.3°c 1014.6 hPa 35% 0.0mm
16/07:30pm WNW 6-9 kts 15.4°c 1014.3 hPa 35% 0.0mm
16/07:00pm NW 8-13 kts 15.8°c 1013.6 hPa 35% 0.0mm
16/06:30pm NW 8-10 kts 15.2°c 1013.2 hPa 38% 0.0mm
16/06:00pm WNW 6-9 kts 15.9°c 1012.9 hPa 38% 0.0mm
16/05:30pm NNW 5-6 kts 15.0°c 1012.4 hPa 62% 0.0mm
16/05:00pm NE 5-7 kts 16.4°c 1012.0 hPa 54% 0.0mm
16/04:30pm N 4-5 kts 17.9°c 1011.7 hPa 55% 0.0mm
16/04:00pm NNE 1-4 kts 19.3°c 1011.6 hPa 44% 0.0mm
16/03:30pm NW 4-6 kts 21.7°c 1011.5 hPa 30% 0.0mm
16/03:00pm NW 4-7 kts 22.0°c 1011.5 hPa 28% 0.0mm
16/02:30pm N 4-6 kts 21.7°c 1011.4 hPa 33% 0.0mm
16/02:00pm NNW 6-11 kts 22.5°c 1011.5 hPa 29% 0.0mm
16/01:30pm NW 7-11 kts 21.7°c 1011.8 hPa 33% 0.0mm
16/01:00pm NW 6-12 kts 22.2°c 1012.3 hPa 35% 0.0mm
16/12:30pm NW 6-12 kts 21.5°c 1012.6 hPa 36% 0.0mm
16/12:00pm NNW 7-12 kts 21.6°c 1013.1 hPa 44% 0.0mm
16/11:30am NNW 7-13 kts 20.8°c 1013.8 hPa 49% 0.0mm
16/11:00am NNW 9-16 kts 19.7°c 1014.4 hPa 51% 0.0mm
16/10:30am NNW 9-13 kts 19.2°c 1015.0 hPa 53% 0.0mm
16/10:00am NNW 7-12 kts 18.3°c 1015.4 hPa 54% 0.0mm
16/09:30am NNW 8-12 kts 17.3°c 1015.5 hPa 57% 0.0mm
16/09:00am NNW 8-12 kts 15.9°c 1015.5 hPa 61% 0.0mm
16/08:30am NNW 8-12 kts 14.0°c 1015.3 hPa 68% 0.0mm
16/08:00am NNW 7-9 kts 11.3°c 1015.2 hPa 73% 0.0mm
16/07:30am NNW 6-8 kts 9.4°c 1015.5 hPa 81% 0.0mm
16/07:00am NW 7-9 kts 7.4°c 1015.4 hPa 83% 0.0mm
16/06:30am NW 4-6 kts 7.4°c 1015.3 hPa 81% 0.0mm
16/06:00am NNW 6-8 kts 7.2°c 1014.9 hPa 85% 0.0mm
16/05:30am NNW 7-10 kts 6.5°c 1014.5 hPa 81% 0.0mm
16/05:00am NNW 6-8 kts 6.3°c 1014.5 hPa 77% 0.0mm
16/04:30am NNW 5-8 kts 6.8°c 1014.5 hPa 74% 0.0mm
16/04:00am NNW 7-9 kts 7.6°c 1014.4 hPa 70% 0.0mm
16/03:30am NNW 8-11 kts 8.5°c 1014.6 hPa 69% 0.0mm
16/03:00am NNW 7-9 kts 8.3°c 1014.8 hPa 69% 0.0mm
16/02:30am NNW 7-9 kts 8.2°c 1014.9 hPa 64% 0.0mm
16/02:00am NNW 7-10 kts 8.2°c 1015.1 hPa 63% 0.0mm
16/01:30am NNW 7-10 kts 8.2°c 1015.3 hPa 64% 0.0mm
16/01:00am NNW 6-8 kts 7.9°c 1015.5 hPa 63% 0.0mm
16/12:30am NNW 5-7 kts 8.1°c 1015.6 hPa 62% 0.0mm
16/12:00am NNW 6-8 kts 8.4°c 1015.7 hPa 58% 0.0mm